Regional Weather Roundup
Issued by NWS

Home | Current Version | Previous Version | Graphics & Text | Print | Product List | Glossary On
Versions: 1 2 3 4 5 6 7 8 9 10 11 12 13 14 15 16 17 18 19 20 21 22 23 24 25 26 27 28
000
ASUS45 KCYS 161210
RWRWY

WYOMING REGIONAL WEATHER ROUNDUP
NATIONAL WEATHER SERVICE CHEYENNE WY
500 AM MST TUE JAN 16 2018

NOTE:  "FAIR" INDICATES FEW OR NO CLOUDS BELOW 12,000 FEET
WITH NO SIGNIFICANT WEATHER AND/OR OBSTRUCTIONS TO VISIBILITY.

WYZ001-161300-
YELLOWSTONE NATIONAL PARK

CITY           SKY/WX    TMP DP  RH WIND       PRES   REMARKS
LK YELLOWSTONE   N/A    -10 -15  78 CALM      30.36F
6HR MIN TEMP: -10; 6HR MAX TEMP:  -2;

W YELLOWSTONE  NOT AVBL

$$
WYZ002>013-054>058-071-098>099-161300-
NORTHERN WYOMING

CITY           SKY/WX    TMP DP  RH WIND       PRES   REMARKS
JACKSON        FAIR      -2  -6  83 CALM      30.41F
CODY           FOG        7   5  91 CALM      30.35F VSB 1/4
GREYBULL       FAIR      -7 -11  83 CALM      30.44F
6HR MIN TEMP:  -9; 6HR MAX TEMP:   1;

WORLAND        FAIR      -8 -10  91 SW5       30.42F WCI -19
6HR MIN TEMP:  -9; 6HR MAX TEMP:  -1;

SHERIDAN       FAIR     -13 -18  78 CALM      30.37F
6HR MIN TEMP: -15; 6HR MAX TEMP: -10;

BUFFALO        FAIR      12  -5  46 S9        30.31F WCI   0
6HR MIN TEMP:   2; 6HR MAX TEMP:  14;

GILLETTE         N/A      4  -4  69 VRB3      30.39F
6HR MIN TEMP:  -5; 6HR MAX TEMP:   4;

HULETT         FAIR      -4 -13  65 MISG      30.42F
NEWCASTLE      FAIR      -8 -17  65 N5        30.50F WCI -19

$$
WYZ014>020-022>026-101>103-161300-
CENTRAL WYOMING

CITY           SKY/WX    TMP DP  RH WIND       PRES   REMARKS
BIG PINEY      CLOUDY    17  14  88 W3        30.39F
6HR MIN TEMP:  17; 6HR MAX TEMP:  25;

PINEDALE       CLOUDY    16  10  79 CALM      30.40S
DUBOIS         FAIR       9   1  72 NW15      30.30F WCI  -8
LANDER         FAIR      12   8  84 CALM      30.38F
6HR MIN TEMP:  10; 6HR MAX TEMP:  22;

RIVERTON       CLOUDY    13   7  77 SW3       30.39F
6HR MIN TEMP:   8; 6HR MAX TEMP:  20;

CASPER         FAIR      11   0  61 SW10      30.39F WCI  -3
6HR MIN TEMP:  -5; 6HR MAX TEMP:  13;

DOUGLAS        FAIR      -6 -12  75 SE3       30.44F
6HR MIN TEMP:  -8; 6HR MAX TEMP:  -1;


$$
WYZ021-027>030-104>119-161300-
SOUTHERN WYOMING

CITY           SKY/WX    TMP DP  RH WIND       PRES   REMARKS
EVANSTON       FAIR      15  11  83 E6        30.35R WCI   6
6HR MIN TEMP:  15; 6HR MAX TEMP:  21;

ROCK SPRINGS   FAIR       7   2  80 SE5       30.40S WCI  -2
6HR MIN TEMP:   6; 6HR MAX TEMP:  14;

DIXON            N/A      5  -6  59 E3        30.44F
RAWLINS        FAIR       1  -5  75 CALM      30.40S
6HR MIN TEMP:  -2; 6HR MAX TEMP:   6;

LARAMIE        FAIR      -2 -10  69 S7        30.35F WCI -15
6HR MIN TEMP:  -8; 6HR MAX TEMP:   5;

CHEYENNE       FAIR      -3  -9  75 W6        30.39F WCI -15
6HR MIN TEMP:  -4; 6HR MAX TEMP:   0;

TORRINGTON     FAIR      -5  -7  91 SE3       30.52F
6HR MIN TEMP:  -6; 6HR MAX TEMP:   1;


$$




USA.gov is the U.S. government's official web portal to all federal, state and local government web resources and services.